Messwerte Millinocket

Temperatur

Temperatur
°C
1594573200 13.00 13.00 26
1594576800 14.00 14.00 25
1594580400 15.00 15.00
1594584000 16.00 16.00 24
1594587600 17.00 17.00 27
1594591200 18.00 18.00 28
1594594800 19.00 19.00 27
1594598400 20.00 20.00 23
1594602000 21.00 21.00 22
1594605600 22.00 22.00 22
1594609200 23.00 23.00 21
1594612800 0.00 0.00 22
1594616400 1.00 1.00 21
1594620000 2.00 2.00 19
1594623600 3.00 3.00 21
1594627200 4.00 4.00 19
1594630800 5.00 5.00 19
1594634400 6.00 6.00 19
1594638000 7.00 7.00 21
1594641600 8.00 8.00 22
1594645200 9.00 9.00 23
1594648800 10.00 10.00 24
1594652400 11.00 11.00 26
1594656000 12.00 12.00 26

Aktuellste Messwerte

Wettercharakter
Wetter: wechselnd bewölkt
Temperatur
26 °C
Feuchtigkeit
60 %
Wind
0 km/h, -
Luftdruck
1007 hPa
Messzeit: 13. Juli 2020, 13.00Datenquelle: METAR

Weitere Messstationen in der Nähe

Messstation Temperatur Entfernung
Greenville 26 °C 73 km
Houlton ME 28 °C 85 km
Bangor 29 °C 95 km
St. Stephen 29 °C 121 km
Presque Isle 26 °C 124 km
Clayton Lake 24.0 °C 126 km
Bar Harbor 28 °C 136 km

Wind

Windrichtung Böen Mittelwind
° km/h km/h
1594573200 13.00 12.00 - 13.00 190° 10
1594576800 14.00 13.00 - 14.00 5
1594580400 15.00 14.00 - 15.00
1594584000 16.00 15.00 - 16.00 10
1594587600 17.00 16.00 - 17.00 5
1594591200 18.00 17.00 - 18.00 5
1594594800 19.00 18.00 - 19.00 5
1594598400 20.00 19.00 - 20.00 5
1594602000 21.00 20.00 - 21.00 0
1594605600 22.00 21.00 - 22.00 270° 5
1594609200 23.00 22.00 - 23.00 270° 5
1594612800 0.00 23.00 - 0.00 290° 10
1594616400 1.00 0.00 - 1.00
1594620000 2.00 1.00 - 2.00 5
1594623600 3.00 2.00 - 3.00 10
1594627200 4.00 3.00 - 4.00 5
1594630800 5.00 4.00 - 5.00 240° 5
1594634400 6.00 5.00 - 6.00 230° 5
1594638000 7.00 6.00 - 7.00 5
1594641600 8.00 7.00 - 8.00 10
1594645200 9.00 8.00 - 9.00 250° 10
1594648800 10.00 9.00 - 10.00 270° 15
1594652400 11.00 10.00 - 11.00 300° 15
1594656000 12.00 11.00 - 12.00 10

Ihre Wetterstation

Fehlt Ihre Wetterstation auf unserem Portal?

Schreiben Sie an network@meteonews.ch

Klima

Wann ist es am wärmsten? Wann regnet es am wenigsten? Unsere Klimadaten geben Auskunft.